Location: Unspecified
(42.3650°N, 71.1030°W)
Time: 08:35:52
(UTC+00:00)

Vanguard 2 - Pass Details

Date: 26 June 2024
Orbit: 552 x 2913 km, 32.9° (Epoch: 13 July)

Event Time Altitude Azimuth Distance (km) Brightness Sun altitude
Exits shadow 06:36:37 11° 163° (SSE) 4,177 10.8 -19.6°
Maximum altitude 06:42:46 17° 131° (SE) 4,232 11.1 -19.1°
Drops below altitude 10° 06:50:42 10° 99° (E) 5,288 12.0 -18.4°
Sets 06:57:39 0° 83° (E) 6,607 12.9 -17.7°
